STARLINK AY (44281 NORAD) Tracking and Keplerian Element Data

This shows tracking and keplerian element data for the satellite.

Feedback or suggestion? Click here.




ElementValue
Catalog44281
NameSTARLINK AY
Epoch Orbit328
Epoch Day165.2594804
Epoch Year2019
RAAN76.8135
Inclination53.0023
Eccentricity6.14E-05
Argument of Perigee95.1985
Mean Anonmoly264.9077
Mean Motion15.13406634
Decay Rate-0.00594419
L11 44281U 19029AY 19165.25948040 -.00594419 00000-0 -35262-1 0 9997
L22 44281 53.0023 76.8135 0000614 95.1985 264.9077 15.13406634 3283

Live tracking and technical data element details for STARLINK AY (NORAD 44281). STARLINK AY can be tracked NOW for your location showing map with azimuth and elevation plus other details from your city location.

Track the satellite on the map from your city or location and see movement details for azimuth, elevation, latitude, longitude, range, height, and movement on the map or in text.







IsCatalogInMostPopularTable: catalog: 44281, numindb: 30
Update: records affected: 1



GetName: 44281 STARLINK AY

Hit Count: updated at: Sun, 21 Jul 2019 21:13:05 GMT